• In Deutschland
  • Länderverzeichnis
  • Für 7 Tage
  • Wassertemperatur
  • Satellitenkarten
  • Wetterkarte
  • Widgets
  • user-avatar
    Anmelden

    Stündliche Wetter Shusha

    Heute, 24 August, Donnerstag

    Zeit Temperatur Niederschläge Wind Luftdruck Luftfeuchtigkeit
    00:00 +21°C° 0 mm 1 m/S 660 mmHg 52%
    01:00 +21°C° 0 mm 1 m/S 660 mmHg 53%
    02:00 +20°C° 0 mm 1 m/S 660 mmHg 54%
    03:00 +20°C° 0 mm 1 m/S 660 mmHg 55%
    04:00 +20°C° 0 mm 1 m/S 660 mmHg 55%
    05:00 +20°C° 0 mm 1 m/S 661 mmHg 55%
    06:00 +20°C° 0 mm 1 m/S 661 mmHg 56%
    07:00 +21°C° 0 mm 2 m/S 662 mmHg 47%
    08:00 +24°C° 0 mm 2 m/S 663 mmHg 39%
    09:00 +26°C° 0 mm 2 m/S 663 mmHg 30%
    10:00 +28°C° 0 mm 3 m/S 663 mmHg 28%
    11:00 +29°C° 0 mm 3 m/S 663 mmHg 26%
    12:00 +30°C° 0 mm 4 m/S 663 mmHg 23%
    13:00 +30°C° 0 mm 4 m/S 663 mmHg 23%
    14:00 +32°C° 0 mm 4 m/S 663 mmHg 23%
    15:00 +32°C° 0 mm 4 m/S 663 mmHg 23%
    16:00 +30°C° 0 mm 4 m/S 662 mmHg 25%
    17:00 +28°C° 0 mm 4 m/S 662 mmHg 27%
    18:00 +27°C° 0 mm 4 m/S 662 mmHg 30%
    19:00 +25°C° 0 mm 3 m/S 662 mmHg 33%
    20:00 +23°C° 0 mm 2 m/S 662 mmHg 36%
    21:00 +20°C° 0 mm 2 m/S 662 mmHg 40%
    22:00 +20°C° 0 mm 2 m/S 662 mmHg 41%
    23:00 +19°C° 0 mm 2 m/S 662 mmHg 42%

    Morgen, 25 August, Freitag

    Zeit Temperatur Niederschläge Wind Luftdruck Luftfeuchtigkeit
    00:00 +19°C° 0 mm 2 m/S 662 mmHg 43%
    01:00 +18°C° 0 mm 2 m/S 662 mmHg 44%
    02:00 +18°C° 0 mm 2 m/S 662 mmHg 44%
    03:00 +18°C° 0 mm 2 m/S 662 mmHg 45%
    04:00 +19°C° 0 mm 1 m/S 662 mmHg 44%
    05:00 +19°C° 0 mm 1 m/S 662 mmHg 43%
    06:00 +19°C° 0 mm 1 m/S 662 mmHg 42%
    07:00 +20°C° 0 mm 2 m/S 663 mmHg 36%
    08:00 +24°C° 0 mm 2 m/S 663 mmHg 29%
    09:00 +26°C° 0 mm 2 m/S 664 mmHg 23%
    10:00 +27°C° 0 mm 3 m/S 664 mmHg 21%
    11:00 +28°C° 0 mm 3 m/S 664 mmHg 20%
    12:00 +29°C° 0 mm 4 m/S 664 mmHg 18%
    13:00 +30°C° 0 mm 4 m/S 664 mmHg 18%
    14:00 +30°C° 0 mm 4 m/S 663 mmHg 18%
    15:00 +30°C° 0 mm 5 m/S 663 mmHg 18%
    16:00 +29°C° 0 mm 4 m/S 662 mmHg 20%
    17:00 +28°C° 0 mm 4 m/S 662 mmHg 23%
    18:00 +26°C° 0 mm 4 m/S 662 mmHg 25%
    19:00 +24°C° 0 mm 3 m/S 662 mmHg 31%
    20:00 +21°C° 0 mm 3 m/S 662 mmHg 37%
    21:00 +19°C° 0 mm 2 m/S 662 mmHg 42%
    22:00 +19°C° 0 mm 2 m/S 662 mmHg 45%
    23:00 +18°C° 0 mm 2 m/S 662 mmHg 48%

    übermorgen, 26 August, Samstag

    Zeit Temperatur Niederschläge Wind Luftdruck Luftfeuchtigkeit
    00:00 +18°C° 0 mm 2 m/S 662 mmHg 51%
    01:00 +17°C° 0 mm 2 m/S 662 mmHg 51%
    02:00 +17°C° 0 mm 2 m/S 662 mmHg 51%
    03:00 +17°C° 0 mm 2 m/S 662 mmHg 51%
    04:00 +17°C° 0 mm 2 m/S 662 mmHg 49%
    05:00 +17°C° 0 mm 2 m/S 662 mmHg 47%
    06:00 +17°C° 0 mm 2 m/S 662 mmHg 46%
    07:00 +19°C° 0 mm 2 m/S 663 mmHg 41%
    08:00 +22°C° 0 mm 3 m/S 663 mmHg 36%
    09:00 +25°C° 0 mm 3 m/S 664 mmHg 31%
    10:00 +26°C° 0 mm 3 m/S 664 mmHg 29%
    11:00 +27°C° 0 mm 4 m/S 663 mmHg 27%
    12:00 +28°C° 0 mm 4 m/S 663 mmHg 25%
    13:00 +28°C° 0 mm 4 m/S 663 mmHg 25%
    14:00 +29°C° 0 mm 4 m/S 663 mmHg 25%
    15:00 +29°C° 0 mm 5 m/S 662 mmHg 25%
    16:00 +28°C° 0 mm 4 m/S 662 mmHg 27%
    17:00 +27°C° 0 mm 4 m/S 662 mmHg 30%
    18:00 +25°C° 0 mm 4 m/S 662 mmHg 33%
    19:00 +24°C° 0 mm 3 m/S 662 mmHg 39%
    20:00 +21°C° 0 mm 3 m/S 661 mmHg 44%
    21:00 +19°C° 0 mm 2 m/S 661 mmHg 50%
    22:00 +18°C° 0 mm 2 m/S 661 mmHg 52%
    23:00 +18°C° 0 mm 2 m/S 661 mmHg 53%

    27 August, Sonntag

    Zeit Temperatur Niederschläge Wind Luftdruck Luftfeuchtigkeit
    00:00 +17°C° 0 mm 2 m/S 661 mmHg 55%
    01:00 +17°C° 0 mm 2 m/S 661 mmHg 55%
    02:00 +17°C° 0 mm 2 m/S 661 mmHg 54%
    03:00 +17°C° 0 mm 2 m/S 661 mmHg 54%
    04:00 +17°C° 0 mm 2 m/S 661 mmHg 52%
    05:00 +17°C° 0 mm 2 m/S 661 mmHg 50%
    06:00 +17°C° 0 mm 2 m/S 661 mmHg 49%
    07:00 +19°C° 0 mm 2 m/S 662 mmHg 44%
    08:00 +21°C° 0 mm 2 m/S 662 mmHg 39%
    09:00 +24°C° 0 mm 3 m/S 663 mmHg 35%
    10:00 +25°C° 0 mm 3 m/S 662 mmHg 33%
    11:00 +27°C° 0 mm 3 m/S 662 mmHg 30%
    12:00 +28°C° 0 mm 4 m/S 662 mmHg 28%
    13:00 +28°C° 0 mm 4 m/S 662 mmHg 28%
    14:00 +28°C° 0 mm 4 m/S 662 mmHg 28%
    15:00 +29°C° 0 mm 4 m/S 661 mmHg 28%
    16:00 +27°C° 0 mm 4 m/S 661 mmHg 31%
    17:00 +26°C° 0 mm 4 m/S 661 mmHg 34%
    18:00 +25°C° 0 mm 3 m/S 661 mmHg 37%
    19:00 +22°C° 0 mm 3 m/S 661 mmHg 43%
    20:00 +21°C° 0 mm 2 m/S 661 mmHg 50%
    21:00 +19°C° 0 mm 2 m/S 661 mmHg 56%
    22:00 +18°C° 0 mm 2 m/S 660 mmHg 58%
    23:00 +18°C° 0 mm 2 m/S 660 mmHg 60%

    28 August, Montag

    Zeit Temperatur Niederschläge Wind Luftdruck Luftfeuchtigkeit
    00:00 +17°C° 0 mm 2 m/S 660 mmHg 62%
    01:00 +17°C° 0 mm 2 m/S 660 mmHg 62%
    02:00 +17°C° 0 mm 2 m/S 660 mmHg 62%
    03:00 +16°C° 0 mm 2 m/S 660 mmHg 62%
    04:00 +16°C° 0 mm 1 m/S 660 mmHg 59%
    05:00 +18°C° 0 mm 1 m/S 660 mmHg 56%
    06:00 +18°C° 0 mm 1 m/S 661 mmHg 53%
    07:00 +19°C° 0 mm 2 m/S 661 mmHg 47%
    08:00 +21°C° 0 mm 2 m/S 662 mmHg 40%
    09:00 +24°C° 0 mm 2 m/S 662 mmHg 34%
    10:00 +25°C° 0 mm 3 m/S 662 mmHg 32%
    11:00 +27°C° 0 mm 3 m/S 662 mmHg 29%
    12:00 +28°C° 0 mm 3 m/S 662 mmHg 27%
    13:00 +28°C° 0 mm 4 m/S 661 mmHg 27%
    14:00 +29°C° 0 mm 4 m/S 661 mmHg 26%
    15:00 +29°C° 0 mm 4 m/S 661 mmHg 26%
    16:00 +28°C° 0 mm 3 m/S 660 mmHg 28%
    17:00 +27°C° 0 mm 3 m/S 660 mmHg 31%
    18:00 +26°C° 0 mm 3 m/S 660 mmHg 33%
    19:00 +24°C° 0 mm 2 m/S 660 mmHg 38%
    20:00 +21°C° 0 mm 2 m/S 660 mmHg 43%
    21:00 +19°C° 0 mm 2 m/S 660 mmHg 48%
    22:00 +19°C° 0 mm 2 m/S 660 mmHg 49%
    23:00 +19°C° 0 mm 2 m/S 660 mmHg 51%

    29 August, Dienstag

    Zeit Temperatur Niederschläge Wind Luftdruck Luftfeuchtigkeit
    00:00 +18°C° 0 mm 2 m/S 659 mmHg 52%
    01:00 +18°C° 0 mm 2 m/S 659 mmHg 52%
    02:00 +19°C° 0 mm 1 m/S 659 mmHg 53%
    03:00 +18°C° 0 mm 1 m/S 659 mmHg 54%
    04:00 +18°C° 0 mm 1 m/S 659 mmHg 53%
    05:00 +18°C° 0 mm 1 m/S 659 mmHg 53%
    06:00 +19°C° 0 mm 1 m/S 660 mmHg 52%
    07:00 +20°C° 0 mm 2 m/S 660 mmHg 46%
    08:00 +23°C° 0 mm 2 m/S 660 mmHg 40%
    09:00 +25°C° 0 mm 2 m/S 661 mmHg 34%
    10:00 +27°C° 0 mm 2 m/S 661 mmHg 32%
    11:00 +28°C° 0 mm 3 m/S 661 mmHg 29%
    12:00 +29°C° 0 mm 3 m/S 660 mmHg 26%
    13:00 +30°C° 0 mm 3 m/S 660 mmHg 26%
    14:00 +30°C° 0 mm 3 m/S 660 mmHg 26%
    15:00 +31°C° 0 mm 3 m/S 659 mmHg 25%
    16:00 +29°C° 0 mm 3 m/S 659 mmHg 28%
    17:00 +28°C° 0 mm 2 m/S 658 mmHg 31%
    18:00 +27°C° 0 mm 2 m/S 658 mmHg 34%
    19:00 +25°C° 0 mm 2 m/S 658 mmHg 38%
    20:00 +24°C° 0 mm 1 m/S 658 mmHg 42%
    21:00 +22°C° 0 mm 1 m/S 658 mmHg 46%
    22:00 +22°C° 0 mm 1 m/S 658 mmHg 46%
    23:00 +22°C° 0 mm 1 m/S 658 mmHg 46%
    Mehr zeigen